Location: Ferchesar
(52.6477°N, 12.4298°E)
Time: 08:39:26
(UTC+01:00)

Vanguard 2 - Visible Passes

Search period start: 02 December 2021 00:00
Search period end: 12 December 2021 00:00
Orbit: 554 x 2936 km, 32.9° (Epoch: 01 December)

Date Brightness Start Highest point End Pass type
(mag) Time Alt. Az. Time Alt. Az. Time Alt. Az.
02 Dec 10.8 16:38:19 10° SW 16:43:11 18° S 16:49:36 10° SE visible
02 Dec 11.3 18:46:46 10° SW 18:51:22 14° SSW 18:56:53 10° S visible
03 Dec 11.0 16:56:01 10° SW 17:00:30 16° S 17:06:15 10° SSE visible
03 Dec 11.5 19:07:05 10° SSW 19:08:42 10° SSW 19:10:25 10° SSW visible
04 Dec 11.1 17:14:06 10° SW 17:17:51 14° S 17:22:24 10° SSE visible
05 Dec 11.3 17:33:08 10° SSW 17:35:13 11° SSW 17:37:30 10° S visible
